GFSFLT1_sfc_wetblb_231.txt.gz
Wetbulb
63.17 64.20 64.41 64.38 64.94 65.72 67.15 65.08 65.08 66.10 65.72 66.56 68.20 70.02 70.48 70.93 70.25 69.74 70.23 69.42 69.24 68.81 68.66 69.73 70.57 70.76 71.32 71.51 71.39 71.04 70.95 70.54 70.44
59.88 62.63 64.10 64.89 65.16 65.56 65.88 66.59 64.26 65.07 67.05 66.91 67.45 69.69 69.78 69.29 71.18 70.26 70.18 69.66 69.46 69.60 68.63 68.98 70.02 70.32 69.71 70.59 70.94 71.26 70.68 70.48 70.60
56.76 60.05 61.34 63.81 64.85 64.80 65.12 65.69 65.87 66.78 67.84 68.12 67.71 67.48 67.76 69.06 70.65 71.56 70.92 69.91 69.21 69.00 69.11 69.28 70.06 70.39 70.12 70.24 70.83 71.03 70.44 70.22 70.86
57.62 59.94 61.04 61.92 64.25 65.25 65.90 66.25 65.54 65.78 65.74 65.88 67.41 67.77 68.09 68.77 69.55 72.08 71.58 70.36 70.02 69.69 69.45 69.09 70.20 70.66 70.59 70.59 70.71 70.77 70.09 70.42 70.18
58.34 60.08 61.75 63.46 64.33 65.05 65.05 65.58 65.16 65.14 65.54 66.70 67.33 68.33 68.05 68.25 70.11 72.59 71.56 70.72 70.10 69.85 69.45 69.95 70.51 70.71 70.64 70.49 70.34 70.35 70.11 70.28 70.93
57.97 64.38 64.38 63.53 64.20 64.26 64.43 64.72 65.52 65.19 65.16 65.65 66.46 66.77 68.48 71.15 72.28 71.57 71.80 71.48 71.44 70.56 69.92 69.73 70.38 70.23 70.31 70.16 69.56 68.95 69.63 70.46 69.98
61.57 64.56 65.20 65.41 64.90 63.80 63.84 64.39 65.25 65.61 66.34 67.62 67.19 66.81 67.60 71.03 71.91 71.50 71.82 71.79 71.41 71.43 71.04 70.29 70.10 69.68 69.18 69.13 68.52 68.01 68.43 70.13 70.18
63.68 64.15 64.88 65.49 65.45 65.39 66.88 65.94 65.63 67.15 67.35 67.39 68.01 69.86 70.44 71.44 72.38 71.51 71.55 71.47 71.44 71.63 71.19 71.17 70.64 70.20 69.05 68.25 67.60 68.40 69.22 69.73 69.93
62.41 62.69 63.12 63.54 64.28 65.16 65.91 67.45 69.00 68.69 69.07 68.20 68.04 67.17 67.89 69.64 71.39 70.81 71.36 70.97 71.54 71.26 70.59 70.90 70.54 70.31 69.89 68.84 70.61 67.75 68.02 70.16 69.96
60.19 59.73 60.88 62.07 63.06 63.86 65.01 66.37 67.42 66.96 67.86 69.55 68.61 68.34 69.21 69.76 70.12 70.05 69.56 69.92 69.49 70.25 70.72 70.85 70.52 69.94 69.56 69.73 70.36 67.13 67.19 68.34 69.90
59.15 58.53 59.73 60.72 60.73 62.32 64.11 64.90 66.65 68.56 68.87 68.95 69.24 68.70 69.69 70.14 70.12 69.53 70.31 69.63 69.58 70.05 69.74 69.13 69.94 69.76 69.64 69.76 71.10 66.40 65.42 67.19 70.10
58.87 58.26 58.48 59.72 60.65 60.63 61.25 64.04 65.97 67.45 66.90 66.03 66.45 66.86 67.75 67.15 67.78 69.50 69.91 68.41 68.85 70.35 68.90 68.48 68.36 68.32 68.79 69.82 70.34 64.22 63.75 65.50 69.62
60.33 60.10 59.53 59.41 59.89 59.98 60.20 61.19 61.40 62.69 63.93 62.24 62.29 63.56 65.03 65.19 67.73 68.04 68.74 68.52 67.33 69.17 70.34 69.69 69.18 67.82 67.64 66.04 68.07 62.81 61.72 63.67 68.84
61.08 60.45 59.33 58.96 58.00 57.67 58.15 59.90 59.39 58.36 58.71 58.77 61.47 62.11 62.35 62.83 64.15 65.23 67.73 69.02 69.15 69.24 66.28 64.71 64.05 64.14 64.02 64.55 64.53 65.84 61.00 61.18 68.68
56.11 57.39 58.72 58.91 57.68 57.42 57.80 58.63 59.09 57.83 58.01 59.12 61.30 60.63 60.21 61.09 61.82 63.71 65.48 66.86 66.47 68.11 65.39 63.05 62.55 61.89 62.35 63.55 64.22 61.48 60.09 58.09 59.36
56.24 55.64 56.25 57.44 56.69 56.74 57.33 58.43 59.22 58.58 59.15 59.25 61.03 60.41 59.80 60.41 60.55 61.15 61.94 62.31 63.20 64.63 63.75 62.58 61.05 61.58 60.82 62.36 62.70 63.34 57.89 56.42 57.89
54.06 54.54 55.17 55.33 55.75 55.49 55.34 56.36 57.33 58.52 59.67 60.13 60.09 60.01 59.89 60.07 59.30 59.56 59.61 63.10 63.95 64.09 63.11 60.85 61.44 60.70 60.31 61.37 62.31 62.25 62.32 60.87 59.99
52.73 53.42 54.58 55.46 55.27 55.22 55.82 56.79 57.85 59.04 59.52 59.31 59.41 59.47 59.64 58.76 59.22 59.55 58.79 61.41 61.64 62.86 62.21 61.29 61.67 61.47 61.71 61.33 59.91 60.56 58.27 59.14 61.05
54.72 55.91 56.68 55.74 55.71 56.52 57.40 58.15 58.20 58.64 58.64 58.23 57.56 57.13 57.86 57.97 58.55 58.78 58.89 60.93 61.71 52.11 52.84 50.66 48.49 47.40 52.67 60.56 53.31 49.21 49.03 47.22 49.03
55.26 54.64 54.87 54.55 55.02 55.89 56.61 57.11 57.35 58.05 58.51 58.27 57.38 57.17 58.08 58.16 57.71 58.75 59.07 59.07 61.65 60.61 56.24 50.84 48.49 47.04 46.49 48.67 47.40 49.03 48.67 48.31 47.94

GFSFLT1_sfc_wetblb_234.txt.gz
Wetbulb
62.51 63.01 63.53 63.41 65.03 66.68 66.23 66.34 66.70 67.66 66.99 67.27 69.10 68.32 68.88 70.52 70.75 70.47 70.24 70.42 70.05 70.05 70.02 70.64 72.13 72.05 72.41 72.49 72.66 72.71 72.74 72.83 72.45
60.78 61.89 63.41 63.79 64.88 65.74 66.77 64.74 64.80 65.82 66.11 66.67 68.31 68.55 69.28 69.64 70.81 70.45 70.52 70.56 70.76 70.61 70.57 70.69 71.39 72.10 72.19 72.37 72.75 72.94 72.49 72.15 72.32
57.46 59.41 59.92 61.71 64.62 65.21 66.18 66.07 65.15 65.43 67.16 67.68 68.19 68.21 67.94 69.58 69.44 71.12 71.28 71.29 70.34 70.44 70.87 70.44 70.61 71.19 71.47 71.59 71.73 72.41 72.47 72.11 72.58
57.46 58.24 60.13 62.36 64.08 65.39 65.20 66.15 66.56 66.49 66.61 66.87 67.70 68.45 68.35 68.42 68.62 69.63 71.60 71.58 70.81 71.15 71.08 70.67 70.33 71.06 71.10 70.98 70.89 71.94 71.91 72.13 72.44
58.15 63.01 63.33 63.71 64.69 65.23 65.34 65.63 65.58 65.83 66.38 66.52 67.20 68.53 68.63 68.48 68.79 68.93 69.50 70.75 71.72 71.52 70.52 70.89 70.61 70.86 71.61 71.70 71.33 72.12 71.74 71.73 72.64
60.09 65.05 65.51 65.25 64.30 64.38 65.16 65.36 65.74 65.72 65.65 66.25 67.01 68.08 68.19 68.61 68.89 68.98 68.91 69.25 71.55 71.30 70.99 70.72 71.06 71.41 71.34 71.64 71.97 71.33 71.70 71.80 71.83
63.70 64.92 65.63 65.36 65.07 66.30 65.81 65.23 65.52 66.49 66.99 67.51 67.59 67.54 66.96 67.21 68.18 70.22 71.31 72.29 72.31 71.41 71.01 71.00 70.73 71.16 71.53 71.99 71.46 71.19 71.13 71.34 71.81
63.43 63.29 63.46 64.09 64.56 65.07 66.39 68.24 66.92 66.67 67.45 68.24 68.34 67.86 67.62 67.59 68.42 69.39 70.57 71.91 71.76 72.05 71.91 71.95 71.86 71.32 70.93 71.11 70.75 70.63 70.16 70.20 70.64
61.50 61.02 62.36 63.70 64.91 65.69 66.14 67.10 68.17 69.07 69.19 69.64 69.64 68.09 67.80 69.36 70.64 71.05 70.30 70.57 71.65 71.16 71.20 71.29 71.76 71.34 71.66 70.48 70.42 67.28 66.87 69.43 70.08
59.29 61.02 62.62 63.16 63.80 64.20 65.27 67.03 68.39 68.02 68.87 70.32 69.30 69.15 69.63 69.75 70.50 70.39 70.20 70.68 69.85 69.51 70.39 70.32 69.87 70.80 70.68 69.89 70.16 66.06 66.13 67.82 69.84
58.88 59.87 61.15 61.41 62.10 64.16 65.77 67.24 68.19 67.87 67.36 67.64 68.47 68.11 67.84 68.42 69.17 69.09 69.55 68.42 67.71 68.29 68.18 68.80 69.67 68.22 68.79 69.69 70.36 65.19 64.98 66.94 70.68
60.33 60.24 60.27 60.78 61.37 61.82 62.48 64.81 67.49 66.42 64.58 64.05 64.50 65.49 65.40 66.18 68.06 68.46 69.21 67.98 67.08 67.91 67.98 64.74 64.28 64.59 64.69 64.34 65.15 63.72 62.51 64.92 70.07
61.21 61.06 60.13 59.97 60.71 60.63 60.09 61.12 61.39 61.17 62.78 62.28 62.79 64.46 65.30 65.75 66.58 66.87 68.03 69.41 68.38 67.05 65.71 64.67 65.05 64.14 64.88 62.99 64.71 62.02 60.90 63.80 69.92
61.74 61.63 60.83 60.45 60.13 59.16 59.50 60.07 61.37 60.30 60.06 59.78 61.79 63.90 64.36 64.76 65.17 65.38 66.80 68.35 69.57 66.33 65.36 64.84 64.48 64.05 63.06 63.20 63.52 63.64 59.46 58.71 67.59
56.66 57.64 59.69 60.34 58.31 58.21 58.90 59.40 60.30 60.32 59.62 61.42 62.11 62.67 62.61 63.10 63.90 64.38 65.75 66.52 66.09 68.47 66.08 63.95 63.35 61.94 61.88 63.25 63.23 60.15 59.48 57.64 61.45
56.63 57.75 56.65 57.22 56.69 56.36 57.15 57.65 59.62 59.34 60.40 61.28 61.13 62.11 62.09 62.41 63.05 62.98 63.81 64.13 64.04 66.39 65.85 63.27 61.88 61.76 61.07 61.53 62.67 63.86 57.74 57.44 56.17
55.77 55.18 55.21 55.88 56.02 56.17 56.37 57.53 58.23 58.04 59.11 60.78 61.31 61.04 61.37 61.68 61.49 61.31 62.04 63.63 63.53 63.93 65.42 64.74 62.44 61.05 60.80 61.35 61.24 61.99 62.43 61.91 61.38
53.36 53.78 55.75 57.30 57.36 57.31 57.85 58.71 59.29 60.46 61.13 60.93 60.23 60.25 60.08 60.19 60.16 60.24 60.75 61.73 62.47 62.25 64.08 64.51 64.18 62.92 61.53 60.77 60.58 61.09 55.61 59.07 62.55
56.11 56.77 56.80 55.87 55.80 55.50 56.04 56.93 57.59 59.04 59.78 59.68 58.77 58.13 58.58 58.37 58.69 59.17 60.26 60.16 61.35 55.95 54.40 51.50 51.32 50.77 55.88 60.89 52.96 48.96 48.96 47.87 49.50
55.45 56.21 55.69 55.52 55.54 56.11 56.50 57.09 57.56 59.10 59.90 59.92 58.99 58.12 58.23 58.68 57.35 59.32 60.09 60.54 60.47 60.88 60.92 50.23 48.60 47.33 46.97 46.24 52.59 48.05 47.33 46.06 47.69

GFSFLT1_sfc_wetblb_237.txt.gz
Wetbulb
64.39 64.90 65.56 66.50 67.93 68.89 70.00 70.71 71.80 72.21 72.37 71.85 71.37 71.44 70.01 68.60 69.65 71.61 73.18 75.24 76.11 75.51 73.95 74.50 75.67 76.39 76.85 76.41 76.68 76.32 76.33 75.50 76.02
63.40 63.46 64.23 65.69 67.55 68.41 69.87 70.57 71.61 72.04 71.46 71.41 71.70 70.67 68.72 68.62 69.29 72.28 73.00 75.09 75.64 76.03 75.31 74.69 75.17 75.54 75.59 76.17 76.49 76.55 76.63 77.82 76.21
61.79 64.17 65.23 66.56 68.53 68.71 70.38 70.47 70.71 70.17 69.79 69.82 70.62 70.46 69.33 70.33 71.33 73.38 74.31 74.72 74.73 74.86 75.23 75.34 75.14 74.76 74.93 75.57 76.15 76.46 76.78 76.73 75.91
65.18 66.95 67.12 67.59 68.49 68.90 69.71 70.54 70.07 69.40 69.74 70.26 70.94 69.73 70.32 70.45 71.70 72.31 73.32 73.35 74.09 74.43 74.78 75.20 75.21 74.97 74.81 74.94 75.22 75.41 76.10 76.35 75.73
67.36 69.31 69.02 68.60 69.03 69.41 69.09 69.40 69.43 69.61 70.28 70.27 70.49 70.89 71.16 70.77 71.44 72.26 71.96 72.21 72.53 73.41 73.78 74.98 75.37 75.32 74.98 74.55 74.39 74.85 74.93 74.60 74.75
68.31 69.55 69.84 70.54 71.10 70.76 69.89 69.77 69.96 69.95 69.91 69.84 70.42 70.65 70.64 71.06 71.41 71.25 70.73 72.25 72.54 74.07 74.85 74.59 75.12 75.33 74.39 74.33 74.72 75.05 75.34 75.37 75.23
68.25 68.42 68.71 69.61 70.07 70.96 73.02 72.17 71.07 70.52 70.67 71.11 71.43 71.09 70.93 70.85 71.22 71.41 72.27 71.63 71.60 73.89 75.53 74.35 75.01 75.21 75.11 74.71 74.91 75.26 74.85 75.09 75.31
66.27 66.54 67.66 68.78 69.35 70.42 71.43 72.25 72.93 73.38 74.09 74.04 73.09 71.41 71.41 72.30 73.39 73.81 74.03 73.66 72.85 74.03 74.37 74.89 73.49 74.59 75.50 75.05 74.95 74.80 75.01 75.03 74.62
65.07 66.23 67.44 68.23 69.12 70.21 70.85 71.22 71.60 72.44 72.60 72.99 73.22 72.87 72.49 73.31 74.31 74.26 74.06 74.09 73.56 72.86 71.97 71.83 72.87 73.03 72.69 73.61 75.50 68.31 67.25 71.03 74.69
65.31 66.31 66.97 67.69 68.25 69.28 70.98 71.26 71.55 70.94 71.74 71.91 71.46 71.38 72.10 72.52 72.47 72.19 72.69 72.29 71.57 70.07 71.37 72.43 72.06 71.18 70.58 70.87 72.39 66.60 65.90 67.73 71.76
64.70 65.16 65.43 66.15 67.48 68.98 70.26 71.07 70.58 70.38 70.01 70.12 69.60 69.20 69.59 70.63 71.59 71.83 71.55 70.58 70.35 70.01 71.10 69.21 67.51 67.39 68.13 68.36 68.59 64.13 64.06 65.94 69.71
64.54 64.67 65.36 66.06 66.51 66.33 67.22 68.55 70.37 68.90 67.88 68.06 68.46 67.87 68.28 69.28 70.04 70.37 71.14 70.32 70.35 70.68 68.99 67.48 67.57 68.31 68.10 67.77 66.89 61.66 62.34 65.08 68.04
64.74 64.96 65.32 65.11 65.00 65.50 65.40 65.96 66.69 66.43 66.85 67.21 67.34 68.01 68.29 69.13 69.26 68.77 68.39 70.48 70.92 70.76 70.32 69.25 67.71 67.72 68.28 65.97 67.77 61.53 60.06 64.96 69.53
66.28 66.30 66.54 66.45 65.12 65.09 65.81 65.88 66.12 66.45 66.36 66.10 66.61 67.99 68.30 68.68 68.97 68.89 69.08 69.75 70.55 71.09 69.56 69.20 68.48 68.07 69.54 68.72 66.15 66.14 58.16 58.44 68.83
63.88 62.20 63.13 64.26 64.76 64.40 64.12 64.31 64.80 65.16 65.47 66.86 66.79 67.24 67.31 67.74 68.30 68.05 67.29 69.01 69.40 69.45 70.07 69.43 69.25 68.26 67.36 67.15 67.67 59.83 60.21 57.23 58.10
61.12 62.25 62.93 62.65 62.33 62.97 64.16 64.12 64.34 64.27 66.25 66.46 66.40 66.53 67.07 67.51 67.96 67.84 68.34 67.84 67.96 66.95 67.96 67.38 67.10 66.97 66.53 66.45 66.53 66.26 57.44 55.58 56.47
61.65 62.56 61.18 61.58 62.86 63.13 63.33 64.25 64.21 64.65 65.42 66.14 66.24 66.54 67.06 67.09 66.41 66.37 66.91 65.82 65.24 64.88 64.92 64.89 65.34 65.13 65.40 66.96 66.99 66.09 66.84 64.89 65.43
61.26 61.03 62.08 62.86 62.14 61.93 62.24 63.06 63.39 63.82 64.42 64.76 63.71 64.13 64.50 64.69 64.50 64.18 64.50 65.21 64.10 63.55 66.23 63.62 64.94 65.32 65.32 65.36 65.79 66.31 60.32 58.85 65.81
61.81 62.72 62.48 62.13 62.39 62.12 62.08 62.40 62.53 63.37 63.87 63.90 63.54 62.95 62.95 62.99 62.81 62.55 62.53 62.55 62.79 57.73 54.33 52.97 50.55 50.91 55.38 64.30 55.36 52.00 50.18 49.64 48.01
59.79 61.77 62.04 61.89 61.85 61.87 61.97 61.74 61.28 62.38 62.91 62.81 62.30 61.91 62.86 62.93 60.56 62.07 61.67 61.97 62.28 61.34 61.69 51.22 48.17 48.19 48.55 47.10 51.78 48.37 47.47 46.38 47.28

GFSFLT1_sfc_wetblb_240.txt.gz
Wetbulb
66.72 67.87 69.04 69.65 71.02 72.04 72.46 72.85 73.90 74.30 74.74 73.61 74.33 74.56 73.96 73.81 72.88 74.67 75.37 74.18 77.27 74.72 74.97 75.55 76.79 77.40 77.14 77.15 77.62 77.05 76.72 78.73 75.03
66.19 67.75 69.17 69.79 71.11 71.81 72.27 72.80 73.71 74.34 74.67 74.14 74.34 73.77 69.37 70.79 70.20 70.73 72.57 74.33 77.13 75.30 76.41 75.74 76.28 77.12 77.96 77.55 77.21 76.93 78.53 76.26 75.58
67.14 69.11 70.08 71.34 71.88 72.16 72.79 73.27 74.14 74.30 73.69 72.29 72.89 72.48 69.43 69.91 71.05 71.33 71.87 75.83 76.25 76.01 76.15 76.63 76.88 77.08 77.44 77.51 77.58 77.63 77.88 75.82 76.40
68.85 69.31 70.73 71.50 71.93 72.68 73.18 73.21 72.67 71.90 72.27 72.85 72.73 72.21 71.96 71.23 70.71 69.73 71.32 72.86 75.27 75.91 76.23 77.05 77.63 77.98 77.63 77.11 76.97 77.22 77.10 76.65 76.46
70.64 71.21 71.52 71.97 72.52 72.42 72.49 72.68 72.64 72.49 73.31 72.82 73.49 73.32 71.85 71.83 70.44 70.60 71.34 73.44 74.93 75.38 75.39 76.74 77.26 77.76 77.74 77.18 76.99 77.55 77.20 76.20 75.83
71.06 71.52 72.14 72.94 73.76 73.59 73.02 72.94 73.92 73.64 73.50 73.43 72.82 73.02 72.69 71.47 71.45 72.29 72.84 73.85 74.73 75.24 76.51 77.37 77.74 78.02 77.77 77.53 76.90 76.45 76.64 76.57 76.24
70.47 71.09 71.20 71.97 72.85 74.08 74.35 74.46 74.46 74.37 74.61 75.18 74.31 73.99 73.07 72.92 72.71 72.84 72.42 73.41 73.65 73.88 76.23 77.92 77.91 77.74 77.37 76.97 76.60 76.98 76.10 75.89 75.89
69.22 69.69 69.95 70.42 71.21 72.09 72.82 73.09 73.60 74.14 75.60 76.39 75.29 74.82 74.73 75.13 75.63 76.13 76.19 76.89 76.98 75.72 76.86 77.17 76.01 77.11 76.82 75.90 76.12 74.69 75.56 75.29 74.99
68.56 68.76 69.08 69.81 70.44 70.87 70.63 70.71 71.12 72.05 72.72 73.65 74.87 73.61 73.91 75.42 76.15 76.00 75.80 76.69 76.95 76.58 76.60 76.17 76.48 75.07 75.20 74.68 74.02 69.64 68.17 72.29 74.50
68.33 68.35 68.43 68.56 69.21 69.66 69.79 70.31 71.11 70.35 71.03 71.56 71.77 71.72 72.29 72.66 72.89 72.43 73.38 74.30 75.31 76.21 76.30 76.20 75.41 74.57 74.40 73.93 74.52 66.36 67.01 68.45 73.97
67.75 67.86 67.63 68.19 68.76 68.90 69.30 69.62 69.99 70.73 70.67 70.93 70.59 70.41 70.30 71.36 71.86 71.49 72.39 72.92 73.27 73.69 74.12 75.05 75.50 75.09 74.71 73.95 73.55 65.05 64.90 67.41 72.47
68.01 67.83 68.03 68.31 68.27 68.35 69.79 70.43 70.67 70.41 70.04 70.43 70.13 69.58 69.82 70.41 70.12 70.45 70.80 71.03 71.90 72.62 72.92 73.18 72.67 72.98 73.11 73.41 73.38 62.84 60.80 64.28 70.98
67.77 67.80 68.87 68.67 67.85 68.08 68.02 68.78 69.01 68.70 68.67 68.83 68.99 69.39 69.94 70.86 71.14 70.21 69.75 70.39 70.95 72.10 72.16 71.59 71.21 71.36 71.92 68.16 70.86 62.46 60.70 62.79 67.37
68.61 69.26 68.20 68.77 68.54 67.59 68.61 69.42 68.82 67.60 67.26 66.78 68.68 69.11 70.31 70.93 70.91 70.99 71.10 71.33 71.43 71.38 71.08 71.30 70.90 70.81 71.30 71.66 70.43 70.53 60.73 58.69 67.16
67.47 65.19 65.11 65.91 66.47 67.10 67.55 67.76 67.40 66.72 66.88 69.00 69.46 69.66 69.41 69.95 70.81 69.92 68.28 71.30 71.09 71.27 70.66 69.99 70.58 70.96 69.59 70.00 72.75 61.83 61.72 58.29 57.55
64.26 64.01 64.97 65.56 65.39 65.38 67.42 68.41 67.77 66.31 67.64 68.36 68.27 68.18 68.54 69.49 70.40 70.17 70.23 70.17 70.16 68.58 70.60 68.70 67.93 65.75 65.68 65.99 68.05 71.43 58.59 57.78 56.78
63.69 63.96 64.33 64.82 65.28 65.29 65.61 66.90 67.02 67.05 67.24 67.69 67.17 66.58 66.79 66.99 67.17 68.00 68.81 68.34 67.42 66.19 65.23 64.61 64.44 64.29 64.51 65.49 66.50 67.65 70.70 69.05 68.27
63.84 64.51 65.03 65.68 65.27 65.37 65.48 66.46 66.46 66.51 66.63 66.65 65.17 64.90 64.81 65.19 65.30 65.60 67.07 67.77 65.78 65.05 67.06 62.94 63.42 63.58 64.22 64.11 65.36 66.51 62.05 63.18 67.27
64.41 64.67 65.55 65.14 65.24 65.08 65.13 65.52 65.44 65.98 66.28 65.86 64.82 63.66 63.43 63.13 63.42 64.05 64.44 64.17 64.49 57.63 54.90 53.64 51.83 50.88 56.92 64.39 57.91 52.38 51.64 50.85 47.87
62.23 64.25 64.61 64.54 64.47 64.85 65.03 64.91 64.61 65.41 65.73 65.03 64.17 63.31 63.50 63.71 62.13 63.63 63.55 63.62 63.00 62.28 62.13 52.17 50.02 48.03 48.05 47.85 55.24 48.60 47.33 46.06 47.51

GFSFLT1_sfc_wetblb_246.txt.gz
Wetbulb
66.74 67.18 68.65 70.44 72.53 73.22 73.78 74.10 75.02 76.05 77.39 77.53 78.14 77.17 77.70 77.35 77.03 74.54 72.97 71.74 71.42 72.08 71.45 71.63 72.49 78.22 76.82 76.63 78.00 77.10 77.54 76.66 75.67
65.91 66.91 68.34 69.62 71.55 72.74 73.45 74.46 75.78 76.23 76.41 76.30 76.36 76.26 75.96 74.37 73.03 72.47 70.78 71.26 72.55 72.66 73.86 73.81 75.40 74.96 75.86 77.59 78.23 77.99 77.58 76.16 76.24
66.68 67.88 68.60 69.53 71.02 72.18 73.37 74.02 74.93 75.75 76.40 76.26 75.39 73.91 74.43 72.72 71.21 70.03 70.13 70.67 70.60 71.21 72.95 74.10 75.02 76.62 77.00 78.10 77.84 78.44 77.39 76.13 76.51
67.02 67.80 68.68 69.70 71.08 72.53 73.13 73.81 73.85 74.01 74.01 74.38 74.34 74.01 74.00 73.93 71.50 71.43 69.82 68.95 70.57 72.20 72.23 73.40 75.58 77.54 77.60 77.85 76.53 76.87 77.14 76.06 75.86
68.01 69.21 69.83 70.48 71.23 72.32 72.95 74.09 74.07 74.34 74.58 74.04 74.85 75.41 74.10 72.37 71.97 71.04 69.27 68.57 69.76 72.10 71.78 72.67 75.45 77.33 77.85 76.71 75.90 76.86 76.77 75.01 75.13
69.56 69.96 70.36 71.12 72.18 73.01 73.53 74.31 76.03 75.38 74.94 75.12 74.90 76.77 74.22 73.94 72.99 70.87 70.60 71.67 72.99 74.02 74.71 74.78 77.19 77.53 76.66 76.21 74.91 74.01 75.23 75.88 74.86
69.28 70.88 72.16 72.18 71.12 73.36 74.24 75.34 76.31 76.68 76.75 77.34 77.31 76.68 76.05 75.57 74.47 73.87 72.98 73.84 74.18 74.46 75.53 75.52 75.48 76.74 76.79 75.13 75.51 75.34 74.78 75.73 75.96
69.26 69.51 69.81 71.39 71.27 72.46 73.75 73.85 75.00 75.10 76.01 77.35 77.52 75.93 76.42 75.92 76.56 76.97 75.76 74.45 74.91 75.38 75.26 75.65 75.85 75.86 76.38 74.44 73.11 72.36 74.13 75.23 74.03
68.96 69.20 69.39 70.71 71.13 71.36 71.40 71.72 71.72 72.63 73.46 74.16 75.35 74.37 74.16 75.76 76.05 76.01 76.19 76.62 76.26 76.66 76.54 75.78 76.00 75.66 75.66 76.07 75.41 70.79 68.04 70.08 73.54
68.45 69.09 69.52 70.20 70.17 70.56 71.27 71.10 72.59 71.77 73.09 74.42 74.29 74.08 74.41 74.79 74.87 74.57 75.17 75.34 75.36 75.20 74.86 76.08 75.38 75.09 74.67 73.94 74.11 68.80 66.43 67.82 72.76
68.77 68.52 69.34 70.32 70.48 70.36 70.77 70.69 70.86 72.93 72.91 73.60 74.44 74.18 73.96 74.33 74.67 73.57 73.66 74.09 73.72 73.31 74.01 74.23 74.28 73.83 74.18 73.93 73.97 65.94 64.61 66.59 72.68
69.77 69.89 70.07 70.06 70.08 69.47 72.06 70.77 72.94 73.05 72.71 74.14 73.46 72.91 73.85 74.71 74.69 73.75 73.02 72.41 72.99 73.80 73.29 72.82 72.62 72.92 74.01 74.11 73.94 63.32 63.95 66.95 71.75
69.22 69.67 69.71 68.86 68.29 68.52 68.99 69.98 69.45 70.19 71.52 72.55 72.86 73.83 73.69 73.82 74.53 73.55 72.52 72.10 72.05 72.57 72.77 71.36 71.47 70.81 72.00 69.71 71.19 64.00 61.86 65.48 70.52
69.67 69.40 69.16 69.53 69.20 68.46 70.22 71.46 71.30 69.86 69.48 68.86 71.89 71.98 72.54 73.07 73.11 72.82 72.37 71.68 71.90 71.78 71.46 71.61 71.38 71.21 71.48 71.68 70.65 70.97 61.22 60.69 70.02
68.82 68.69 67.47 67.20 67.53 68.70 68.94 70.20 70.73 69.63 70.46 71.96 72.03 71.53 70.88 71.27 71.74 70.95 69.49 70.74 71.29 71.41 70.93 69.67 69.23 69.14 69.27 69.92 70.82 65.73 62.73 59.32 60.40
66.54 66.27 66.58 66.76 68.40 68.93 70.08 71.06 70.26 69.28 71.44 71.98 71.07 70.34 69.33 68.94 69.34 68.94 68.89 68.50 67.86 67.54 68.35 68.04 67.58 67.26 67.44 67.65 68.06 69.33 60.16 58.89 58.80
65.66 66.08 66.00 66.53 67.24 67.45 68.06 70.20 70.38 70.96 70.70 68.99 70.16 68.92 68.35 67.92 67.26 66.56 66.71 66.21 65.73 65.17 65.10 65.08 64.71 64.91 65.48 66.80 65.86 65.71 67.90 66.34 65.20
65.27 66.49 66.46 66.82 67.26 66.92 67.18 68.94 69.49 68.78 69.23 69.54 68.11 67.44 66.82 66.41 65.94 65.73 65.95 66.14 64.87 65.01 66.40 64.88 65.05 64.76 64.96 63.96 63.25 63.68 60.53 61.44 64.73
67.03 66.63 67.31 67.05 67.52 66.97 67.73 67.61 67.60 68.43 69.46 69.03 67.75 66.24 64.95 64.38 63.93 64.31 64.45 63.98 64.46 60.07 54.08 52.13 50.22 49.44 55.52 63.83 57.20 53.79 51.80 50.07 49.25
63.86 66.20 66.40 67.14 67.22 66.77 67.59 67.10 66.78 68.06 67.68 66.88 65.81 65.07 64.59 63.61 62.08 62.90 62.11 62.36 62.49 61.96 62.55 56.19 50.58 49.01 48.02 47.35 50.36 49.01 47.64 46.03 45.52